******** Week 361 almanac for PRN-1 ******** ID: 1 Health: 0 Eccentricity: 0.001606941223 Time of Applicability(s): 233472 Orbital Inclination(rad): 0.958195107 Rate of Right Ascen(r/s): -8.046049436e-09 SQRT(A) (m 1/2): 5153.573242 Right Ascen at Week(rad): 3.011463447 Argument of Perigee(rad): 0.1011951696 Mean Anom(rad): 0.8647513345 Af0(s): 0.000252480896 Af1(s/s): -7.275958e-12 week: 361 ******** Week 361 almanac for PRN-2 ******** ID: 2 Health: 0 Eccentricity: 0.01689004898 Time of Applicability(s): 233472 Orbital Inclination(rad): 0.9634082449 Rate of Right Ascen(r/s): -7.943188008e-09 SQRT(A) (m 1/2): 5153.541504 Right Ascen at Week(rad): 2.84902739 Argument of Perigee(rad): -0.807364499 Mean Anom(rad): 2.340329624 Af0(s): 4.371311035e-05 Af1(s/s): 7.275958e-12 week: 361 ******** Week 361 almanac for PRN-3 ******** ID: 3 Health: 0 Eccentricity: 0.006517887115 Time of Applicability(s): 233472 Orbital Inclination(rad): 0.9934227361 Rate of Right Ascen(r/s): -7.588887536e-09 SQRT(A) (m 1/2): 5153.583008 Right Ascen at Week(rad): -2.284730311 Argument of Perigee(rad): 1.202999341 Mean Anom(rad): -1.252119683 Af0(s): 0.0004303480347 Af1(s/s): -1.091394e-11 week: 361 ******** Week 361 almanac for PRN-4 ******** ID: 4 Health: 0 Eccentricity: 0.00373506546 Time of Applicability(s): 233472 Orbital Inclination(rad): 0.9704789376 Rate of Right Ascen(r/s): -7.714607058e-09 SQRT(A) (m 1/2): 5153.680664 Right Ascen at Week(rad): -1.214104598 Argument of Perigee(rad): -2.875379202 Mean Anom(rad): 1.72243647 Af0(s): 3.768371582e-05 Af1(s/s): 3.637979e-12 week: 361 ******** Week 361 almanac for PRN-5 ******** ID: 5 Health: 0 Eccentricity: 0.005411148071 Time of Applicability(s): 233472 Orbital Inclination(rad): 0.9799944121 Rate of Right Ascen(r/s): -7.737465153e-09 SQRT(A) (m 1/2): 5153.665527 Right Ascen at Week(rad): -2.34457204 Argument of Perigee(rad): 1.417504609 Mean Anom(rad): 2.389997496 Af0(s): -0.0001816355103 Af1(s/s): 0 week: 361 ******** Week 361 almanac for PRN-6 ******** ID: 6 Health: 0 Eccentricity: 0.003849983215 Time of Applicability(s): 233472 Orbital Inclination(rad): 0.9870591127 Rate of Right Ascen(r/s): -7.771752296e-09 SQRT(A) (m 1/2): 5153.596191 Right Ascen at Week(rad): 2.962227382 Argument of Perigee(rad): -0.5589303931 Mean Anom(rad): 0.06018140694 Af0(s): -0.0004838589111 Af1(s/s): 0 week: 361 ******** Week 361 almanac for PRN-7 ******** ID: 7 Health: 0 Eccentricity: 0.02052688599 Time of Applicability(s): 233472 Orbital Inclination(rad): 0.9512742172 Rate of Right Ascen(r/s): -7.863184676e-09 SQRT(A) (m 1/2): 5153.562988 Right Ascen at Week(rad): -0.2054339579 Argument of Perigee(rad): -1.989770822 Mean Anom(rad): -0.7977538996 Af0(s): -0.0001258636108 Af1(s/s): -3.637979e-12 week: 361 ******** Week 361 almanac for PRN-8 ******** ID: 8 Health: 0 Eccentricity: 0.0115852356 Time of Applicability(s): 233472 Orbital Inclination(rad): 0.9431549048 Rate of Right Ascen(r/s): -8.057478483e-09 SQRT(A) (m 1/2): 5153.637695 Right Ascen at Week(rad): 1.841616965 Argument of Perigee(rad): 0.5257764093 Mean Anom(rad): 2.027522254 Af0(s): 0.0003798518555 Af1(s/s): -7.275958e-12 week: 361 ******** Week 361 almanac for PRN-9 ******** ID: 9 Health: 0 Eccentricity: 0.003345012665 Time of Applicability(s): 233472 Orbital Inclination(rad): 0.9646366279 Rate of Right Ascen(r/s): -7.794610391e-09 SQRT(A) (m 1/2): 5153.723145 Right Ascen at Week(rad): -1.278422061 Argument of Perigee(rad): 2.068358501 Mean Anom(rad): 2.617552086 Af0(s): 0.0006059541504 Af1(s/s): 0 week: 361 ******** Week 361 almanac for PRN-10 ******** ID: 10 Health: 0 Eccentricity: 0.01094007492 Time of Applicability(s): 233472 Orbital Inclination(rad): 0.9929613435 Rate of Right Ascen(r/s): -7.588887536e-09 SQRT(A) (m 1/2): 5153.609375 Right Ascen at Week(rad): -2.287239508 Argument of Perigee(rad): -2.255886154 Mean Anom(rad): -2.242937199 Af0(s): -0.0004665244019 Af1(s/s): 0 week: 361 ******** Week 361 almanac for PRN-11 ******** ID: 11 Health: 0 Eccentricity: 0.002200603485 Time of Applicability(s): 233472 Orbital Inclination(rad): 0.9639295587 Rate of Right Ascen(r/s): -7.988904198e-09 SQRT(A) (m 1/2): 5153.529297 Right Ascen at Week(rad): 2.980839633 Argument of Perigee(rad): -2.304611391 Mean Anom(rad): 1.157835292 Af0(s): -0.0003255873047 Af1(s/s): 1.455192e-11 week: 361 ******** Week 361 almanac for PRN-12 ******** ID: 12 Health: 0 Eccentricity: 0.00900888443 Time of Applicability(s): 233472 Orbital Inclination(rad): 0.9591358687 Rate of Right Ascen(r/s): -7.760323248e-09 SQRT(A) (m 1/2): 5153.717773 Right Ascen at Week(rad): 0.9121088717 Argument of Perigee(rad): 1.561949722 Mean Anom(rad): -1.464547934 Af0(s): -0.0004800905395 Af1(s/s): 0 week: 361 ******** Week 361 almanac for PRN-13 ******** ID: 13 Health: 0 Eccentricity: 0.01000833511 Time of Applicability(s): 233472 Orbital Inclination(rad): 0.9761235075 Rate of Right Ascen(r/s): -7.668890868e-09 SQRT(A) (m 1/2): 5153.623047 Right Ascen at Week(rad): -1.103166254 Argument of Perigee(rad): 0.9957580126 Mean Anom(rad): 1.783073278 Af0(s): 0.0005403844849 Af1(s/s): 0 week: 361 ******** Week 361 almanac for PRN-14 ******** ID: 14 Health: 0 Eccentricity: 0.006756782532 Time of Applicability(s): 233472 Orbital Inclination(rad): 0.9425077566 Rate of Right Ascen(r/s): -7.908900866e-09 SQRT(A) (m 1/2): 5153.598145 Right Ascen at Week(rad): 0.8573428364 Argument of Perigee(rad): -2.74660571 Mean Anom(rad): -1.617902945 Af0(s): 0.0005833439209 Af1(s/s): 0 week: 361 ******** Week 361 almanac for PRN-15 ******** ID: 15 Health: 0 Eccentricity: 0.01660728455 Time of Applicability(s): 233472 Orbital Inclination(rad): 0.9425137488 Rate of Right Ascen(r/s): -8.000333246e-09 SQRT(A) (m 1/2): 5153.644531 Right Ascen at Week(rad): -1.422708384 Argument of Perigee(rad): 1.503146876 Mean Anom(rad): 1.03025348 Af0(s): 0.0003105138184 Af1(s/s): 3.637979e-12 week: 361 ******** Week 361 almanac for PRN-16 ******** ID: 16 Health: 0 Eccentricity: 0.01504278183 Time of Applicability(s): 233472 Orbital Inclination(rad): 0.9582490361 Rate of Right Ascen(r/s): -7.760323248e-09 SQRT(A) (m 1/2): 5153.600098 Right Ascen at Week(rad): 0.9290717931 Argument of Perigee(rad): 0.9300709778 Mean Anom(rad): 3.057280262 Af0(s): 0.00017635979 Af1(s/s): 7.275958e-12 week: 361 ******** Week 361 almanac for PRN-17 ******** ID: 17 Health: 0 Eccentricity: 0.01265668869 Time of Applicability(s): 233472 Orbital Inclination(rad): 0.9588542394 Rate of Right Ascen(r/s): -7.920329913e-09 SQRT(A) (m 1/2): 5153.547363 Right Ascen at Week(rad): 1.946478933 Argument of Perigee(rad): -1.119942296 Mean Anom(rad): 1.961789155 Af0(s): -6.632333984e-05 Af1(s/s): -1.091394e-11 week: 361 ******** Week 361 almanac for PRN-18 ******** ID: 18 Health: 0 Eccentricity: 0.005755901337 Time of Applicability(s): 233472 Orbital Inclination(rad): 0.9720129184 Rate of Right Ascen(r/s): -7.920329913e-09 SQRT(A) (m 1/2): 5153.589844 Right Ascen at Week(rad): 2.957084277 Argument of Perigee(rad): -2.86649627 Mean Anom(rad): -0.0221715651 Af0(s): -0.0003203115845 Af1(s/s): 1.091394e-11 week: 361 ******** Week 361 almanac for PRN-19 ******** ID: 19 Health: 0 Eccentricity: 0.01115179062 Time of Applicability(s): 233472 Orbital Inclination(rad): 0.9580453042 Rate of Right Ascen(r/s): -7.920329913e-09 SQRT(A) (m 1/2): 5153.672852 Right Ascen at Week(rad): 1.990377524 Argument of Perigee(rad): 2.934461431 Mean Anom(rad): -2.513728251 Af0(s): 0.000547921228 Af1(s/s): 0 week: 361 ******** Week 361 almanac for PRN-20 ******** ID: 20 Health: 255 Eccentricity: 0.00227689743 Time of Applicability(s): 233472 Orbital Inclination(rad): 0.9600406777 Rate of Right Ascen(r/s): -7.828897533e-09 SQRT(A) (m 1/2): 5153.704102 Right Ascen at Week(rad): -1.272846026 Argument of Perigee(rad): -2.003031742 Mean Anom(rad): -1.477954912 Af0(s): 3.466901855e-05 Af1(s/s): 2.182787e-11 week: 361 ******** Week 361 almanac for PRN-21 ******** ID: 21 Health: 0 Eccentricity: 0.0007562637329 Time of Applicability(s): 233472 Orbital Inclination(rad): 0.9628330021 Rate of Right Ascen(r/s): -7.897471818e-09 SQRT(A) (m 1/2): 5153.72168 Right Ascen at Week(rad): -2.278720597 Argument of Perigee(rad): -0.3134863513 Mean Anom(rad): -1.769205657 Af0(s): 0.0003218189331 Af1(s/s): 3.637979e-12 week: 361 ******** Week 361 almanac for PRN-22 ******** ID: 22 Health: 0 Eccentricity: 0.0120806694 Time of Applicability(s): 233472 Orbital Inclination(rad): 0.9576977617 Rate of Right Ascen(r/s): -7.748894201e-09 SQRT(A) (m 1/2): 5153.573242 Right Ascen at Week(rad): 0.932425129 Argument of Perigee(rad): -0.9931136185 Mean Anom(rad): 2.609478463 Af0(s): -2.863962402e-05 Af1(s/s): 3.637979e-12 week: 361 ******** Week 361 almanac for PRN-23 ******** ID: 23 Health: 0 Eccentricity: 0.006045818329 Time of Applicability(s): 233472 Orbital Inclination(rad): 0.9879639217 Rate of Right Ascen(r/s): -7.634603726e-09 SQRT(A) (m 1/2): 5153.663574 Right Ascen at Week(rad): -2.319360976 Argument of Perigee(rad): -2.738944419 Mean Anom(rad): -1.161867609 Af0(s): 0.0004921493286 Af1(s/s): 3.637979e-12 week: 361 ******** Week 361 almanac for PRN-24 ******** ID: 24 Health: 0 Eccentricity: 0.01791906357 Time of Applicability(s): 233472 Orbital Inclination(rad): 0.9352393242 Rate of Right Ascen(r/s): -8.068907531e-09 SQRT(A) (m 1/2): 5153.587402 Right Ascen at Week(rad): -0.3140432432 Argument of Perigee(rad): 1.136517977 Mean Anom(rad): 0.1839481152 Af0(s): -6.933803711e-05 Af1(s/s): 1.818989e-11 week: 361 ******** Week 361 almanac for PRN-25 ******** ID: 25 Health: 0 Eccentricity: 0.01293325424 Time of Applicability(s): 233472 Orbital Inclination(rad): 0.9475471232 Rate of Right Ascen(r/s): -7.874613723e-09 SQRT(A) (m 1/2): 5153.666504 Right Ascen at Week(rad): 0.8181933697 Argument of Perigee(rad): 1.157808327 Mean Anom(rad): -1.595275605 Af0(s): 0.0003466901855 Af1(s/s): -3.637979e-12 week: 361 ******** Week 361 almanac for PRN-26 ******** ID: 26 Health: 0 Eccentricity: 0.01101350784 Time of Applicability(s): 233472 Orbital Inclination(rad): 0.9283603791 Rate of Right Ascen(r/s): -8.046049436e-09 SQRT(A) (m 1/2): 5153.662598 Right Ascen at Week(rad): 0.7435140467 Argument of Perigee(rad): 0.7101952799 Mean Anom(rad): -2.415887166 Af0(s): -0.0002675543823 Af1(s/s): -3.637979e-12 week: 361 ******** Week 361 almanac for PRN-27 ******** ID: 27 Health: 0 Eccentricity: 0.01436710358 Time of Applicability(s): 233472 Orbital Inclination(rad): 0.9522569236 Rate of Right Ascen(r/s): -7.977475151e-09 SQRT(A) (m 1/2): 5153.616699 Right Ascen at Week(rad): 1.873726075 Argument of Perigee(rad): 0.8830639791 Mean Anom(rad): 2.129422995 Af0(s): -5.04961792e-05 Af1(s/s): -1.091394e-11 week: 361 ******** Week 361 almanac for PRN-28 ******** ID: 28 Health: 0 Eccentricity: 0.0004229545593 Time of Applicability(s): 233472 Orbital Inclination(rad): 0.9622038303 Rate of Right Ascen(r/s): -7.760323248e-09 SQRT(A) (m 1/2): 5153.744141 Right Ascen at Week(rad): -0.2310828208 Argument of Perigee(rad): -0.02920106202 Mean Anom(rad): -0.4436245476 Af0(s): -0.0004589876587 Af1(s/s): 7.275958e-12 week: 361 ******** Week 361 almanac for PRN-29 ******** ID: 29 Health: 0 Eccentricity: 0.003382205963 Time of Applicability(s): 233472 Orbital Inclination(rad): 0.9615147373 Rate of Right Ascen(r/s): -7.886042771e-09 SQRT(A) (m 1/2): 5153.70752 Right Ascen at Week(rad): 1.963229135 Argument of Perigee(rad): 2.74160679 Mean Anom(rad): 1.99040711 Af0(s): -0.0002856425659 Af1(s/s): 7.275958e-12 week: 361 ******** Week 361 almanac for PRN-30 ******** ID: 30 Health: 0 Eccentricity: 0.008087158203 Time of Applicability(s): 233472 Orbital Inclination(rad): 0.9365336205 Rate of Right Ascen(r/s): -8.023191341e-09 SQRT(A) (m 1/2): 5153.694336 Right Ascen at Week(rad): -0.2145438414 Argument of Perigee(rad): -2.314329474 Mean Anom(rad): -0.9756024188 Af0(s): 0.000116819519 Af1(s/s): 1.455192e-11 week: 361 ******** Week 361 almanac for PRN-31 ******** ID: 31 Health: 0 Eccentricity: 0.01085472107 Time of Applicability(s): 233472 Orbital Inclination(rad): 0.9550432559 Rate of Right Ascen(r/s): -7.828897533e-09 SQRT(A) (m 1/2): 5153.516113 Right Ascen at Week(rad): -0.1811876239 Argument of Perigee(rad): 0.9369836286 Mean Anom(rad): -1.891887793 Af0(s): -0.0001281246338 Af1(s/s): 3.637979e-12 week: 361 ******** Week 361 almanac for PRN-32 ******** ID: 32 Health: 0 Eccentricity: 0.009367465973 Time of Applicability(s): 233472 Orbital Inclination(rad): 0.9676806211 Rate of Right Ascen(r/s): -7.748894201e-09 SQRT(A) (m 1/2): 5153.685547 Right Ascen at Week(rad): -1.261387234 Argument of Perigee(rad): -1.995724361 Mean Anom(rad): 2.70120235 Af0(s): -4.371311035e-05 Af1(s/s): 1.818989e-11 week: 361